カタログに戻る

COSMOS 1823 DEB

運用中LEO
NORAD 18757·DEBRIS·🇷🇺 Russia

打ち上げ Feb 20, 1987 から Plesetsk Cosmodrome

Loading…

次のパス (今後24時間)

TLE

最新Source: Space-Track

元期: Sep 14, 2026, 13:24 UTC

1 18757U 87020AJ  26257.55893645  .00005441  00000-0  93154-2 0  9990
2 18757  73.7172 103.2365 0083711  79.7306 310.5107 13.43466351812070

AllMySatでCOSMOS 1823 DEBをリアルタイム追跡

Download on the App Store